Regional Weather Roundup
Issued by NWS

Home | Current Version | Previous Version | Text Only | Print | Product List | Glossary On
Versions: 1 2 3 4 5 6 7 8 9 10 11 12 13 14 15 16 17 18 19 20 21 22 23 24 25 26 27 28 29 30 31 32 33 34 35 36 37 38 39 40 41 42 43 44 45 46 47 48 49 50
000
ASHW40 PHFO 041912
RWRHI

WEATHER ROUNDUP FOR HAWAII
NATIONAL WEATHER SERVICE HONOLULU HI
900 AM HST SUN DEC 04 2016

THIS IS AN AUTOMATED REPORT THAT HAS NOT BEEN QUALITY CONTROLLED.

NOTE..."FAIR" INDICATES FEW OR NO CLOUDS BELOW 12,000 FEET WITH NO
SIGNIFICANT WEATHER AND/OR OBSTRUCTIONS TO VISIBILITY.

* - THESE SITES REPORT LIMITED FIELDS

HIZ001>004-042000-
KAUAI-NIIHAU-

CITY           SKY/WX    TMP DP  RH WIND       PRES   REMARKS
LIHUE APT      PTSUNNY   70  64  81 SW6       29.91R
PORT ALLEN*      N/A     72 N/A N/A NE5         N/A
POIPU*           N/A     70 N/A N/A NW2         N/A
PRINCEVILLE*     N/A     68 N/A N/A S3          N/A
KOKOLE POINT*  NOT AVBL
MOLOAA DAIRY*    N/A     72  68  88 E3          N/A
WAIMEA HTS*    NOT AVBL
PUU OPAE*      NOT AVBL
PUU LUA*       NOT AVBL
MAKAHA RIDGE*  NOT AVBL
$$

HIZ005>011-042000-
OAHU-

CITY           SKY/WX    TMP DP  RH WIND       PRES   REMARKS
HONOLULU       CLOUDY    72  68  87 N3        29.89F
KALAELOA       PTSUNNY   74  66  76 NE5       29.91R
KANEOHE MCB    NOT AVBL
WHEELER FIELD  FAIR      69  67  95 CALM      29.92R
BELLOWS*       NOT AVBL
KAHUKU*        NOT AVBL
WHEELER*       NOT AVBL
WAIANAE HARBOR NOT AVBL
DILLINGHAM*      N/A     86  82  89 MISG        N/A  HX 105
KAHUKU TRN*      N/A     81  75  83 N2          N/A
KAWAILOA*        N/A     70  64  83 E5          N/A
KII*             N/A     72  68  88 S2          N/A
MAKUA RANGE*     N/A     75  68  78 NW2         N/A
OAHU FOREST NW NOT AVBL
SCHOFIELD BRK*   N/A     70  66  88 MISG        N/A
SCHOFIELD S*   NOT AVBL
WAIANAE VLY*   NOT AVBL
KUAOKALA*      NOT AVBL
HONOULIUULI*   NOT AVBL
MOKUOLOE IS*   NOT AVBL
PALEHUA*       NOT AVBL
WAIAWA PHB*    NOT AVBL
$$

HIZ012>013-042000-
MOLOKAI-

CITY           SKY/WX    TMP DP  RH WIND       PRES   REMARKS
MOLOKAI AIRPT  NOT AVBL
KALAUPAPA      NOT AVBL
MAKAPULAPAI*   NOT AVBL
MOLOKAI 1*     NOT AVBL
PUU ALII*      NOT AVBL
$$

HIZ016-042000-
KAHOOLAWE-

CITY           SKY/WX    TMP DP  RH WIND       PRES   REMARKS
KAHOOLAWE*     NOT AVBL
HAKIOAWA*      NOT AVBL
HONOKANAIA*      N/A     78  71  78 SE3G9     29.84R
KANELOA*         N/A     72  68  88 SW3       29.96R
KEALIALALO*    NOT AVBL
LUA MAKIKA*    NOT AVBL
$$

HIZ014>015-042000-
LANAI-

CITY           SKY/WX    TMP DP  RH WIND       PRES   REMARKS
LANAI CITY     FAIR      70  69  97 E3        29.97S
LANAI 1*       NOT AVBL
$$

HIZ017>028-042000-
MAUI-

CITY           SKY/WX    TMP DP  RH WIND       PRES   REMARKS
KAHULUI        CLOUDY    79  70  74 S7        29.91R
KAPALUA-W MAUI PTSUNNY   75  68  78 CALM      29.93
HANA AIRPORT   MOSUNNY   73  72  94 CALM      29.94R
HANA*            N/A     73 N/A N/A SW2         N/A
HALEAKALA SUMM   N/A     43  25  49 SW7G23      N/A
MAALAEA BAY*   NOT AVBL
HALEAKALA*     NOT AVBL
KAUPO GAP*     NOT AVBL
KULA 1*          N/A     57  44  62 SE12G22     N/A
$$

HIZ023>026-042000-
BIG ISLAND OF HAWAII COAST AND LOWER SLOPES-

CITY           SKY/WX    TMP DP  RH WIND       PRES   REMARKS
KAILUA KONA    CLOUDY    78  70  76 SE10      29.89F
HILO           CLOUDY    73  65  75 SW3       29.91R
HONOKAA*         N/A     68 N/A N/A VRB1        N/A
KAWAIHAE MWT*    N/A     77 N/A N/A S3          N/A
KAWAIHAE*      NOT AVBL
SOUTH POINT*     N/A     73 N/A N/A N8          N/A
UPOLU AIRPORT* NOT AVBL
KAMUELA*       PTCLDY    68  59  73 CALM      30.04R
HAKALAU*         N/A     59  49  70 W1G8        N/A
KALOKO-HONOKO* NOT AVBL
PALI 2*          N/A     66  63  88 S3          N/A
KEALAKOMO*       N/A     81  70  69 SW5         N/A
KAUPULEHU*     NOT AVBL
KAPAPALA*        N/A     67  63  86 N5          N/A
LOWER KAHUKU*  NOT AVBL
PUHE CS*       NOT AVBL
PUHO CS*       NOT AVBL
PTA KEAMUKU*     N/A     64  57  77 CALM        N/A
WAIKOLOA*      NOT AVBL
$$

HIZ027>028-042000-
BIG ISLAND OF HAWAII INTERIOR AND SUMMMITS-

CITY           SKY/WX    TMP DP  RH WIND       PRES   REMARKS
BRADSHAW FIELD CLOUDY    58  46  63 CALM      30.27R
MK VISITOR CEN   N/A     50  36  57 E7          N/A
MAUNA KEA*       N/A     30  28  93 SE8         N/A  WCI  23
MAUNA LOA*       N/A    N/A N/A N/A MISG        N/A
MAUNA LOA 1*   NOT AVBL
PTA KIPUKA*      N/A     64  48  55 SW7         N/A
PTA RANGE 17*    N/A     61  50  67 E6          N/A
PTA WEST*        N/A     52  37  58 E3G10       N/A
NENE CABIN*    NOT AVBL
AHUMOA*        NOT AVBL
PTA PORTABLE*  NOT AVBL
PUU MALI*        N/A     61  43  51 W2G10       N/A
$$

HIC003-042000-
NORTHWEST ISLANDS-

CITY           SKY/WX    TMP DP  RH WIND       PRES   REMARKS
MIDWAY ISLAND  CLOUDY    66  61  82 N6        30.14R
MIDWAY NOS*    NOT AVBL
FRENCH FRIGATE NOT AVBL
$$

PHZ110>124-180-042000-
BUOY REPORTS

STATION/POSITION TIME  TEMP    WIND        PRES    WAVE   SWELL
                       AIR SEA DIR/SP/G            HT/PER HT/DIR
                 (UTC) (F)     (DEG/KT/KT) (MB)    (FT/S) (FT/D)
BUOY 51001       1850   72 77  320/ 10/ 16 1010.5R  13/11  13/350
BUOY 51101       1850   72 78  350/ 10/ 14 1011.3R  12/12  11/350
BUOY 51100       NOT AVBL
BUOY 51002       1850   77 79  130/  6/ 10 1012.3R  10/10  10/ 80
BUOY 51003       1850   78 79  160/  4/  8 1011.3    8/13   8/310
BUOY 51004       1850   77 79  110/ 16/ 17 1013.2    9/10   7/ 90
BARBERS PT BUOY  NOT AVBL
WAIMEA BAY BUOY  NOT AVBL
KAILUA BAY BUOY  1834      78                N/A     7/11   5/ 80
LANAI BUOY       1845      78                N/A     3/14   3/260
BARBERS PT 2     1839      79                N/A     6/13   5/310
PAUWELA MAUI     1839      77                N/A     8/11   5/ 70
HILO             1842      77                N/A     9/11   5/100
KANEOHE BAY BUOY 1836      77                N/A     6/11   3/ 70
HANALEI KAUAI    1852      78                N/A    11/13   8/320
KAHULUI HARBOR   1842   76 76  180/  2/  3 1012.6R
HONOLULU HARBOR  1842   75 78   60/  2/  3 1013.0F
KILO NALU        NOT AVBL
HILO HARBOR      1842   72 76  170/  5/  6 1012.5R
MOKUOLOE         1836   72     180/  2/  3   N/A
NAWILIWILI       1848      78                N/A
WHOTS BUOY       NOT AVBL
BUOY 51028       NOT AVBL
$$

......................KEY........................................
  SKY/WX - SKY CONDITIONS/PRESENT WEATHER
  TMP    - TEMPERATURE IN FAHRENHEIT
  DWPT   - DEWPOINT IN FAHRENHEIT
  RH     - RELATIVE HUMIDITY IN PERCENT
  WIND   - DIRECTION AND SPEED /MPH FOR ISLANDS...KTS FOR BUOYS/
  PRES   - MEAN SEA LEVEL PRESSURE IN INCHES OF HG
  VSB    - VISIBILITY IN MILES
  HX     - HEAT INDEX
  WCI    - WIND CHILL INDEX
  VRB    - VARIABLE WIND DIRECTION
  N/A    - NOT AVAILABLE




USA.gov is the U.S. government's official web portal to all federal, state and local government web resources and services.